Year,Month,Day,Hour,Minute,Value (Times are PST for windspeed in km/hr)
2018,12,20,00,00,13.20
2018,12,20,00,01,17.80
2018,12,20,00,02,14.60
2018,12,20,00,03,13.90
2018,12,20,00,04,10.40
2018,12,20,00,05,14.40
2018,12,20,00,06,12.60
2018,12,20,00,07,14.90
2018,12,20,00,08,19.80
2018,12,20,00,09,18.30
2018,12,20,00,10,13.90
2018,12,20,00,11,19.30
2018,12,20,00,12,20.20
2018,12,20,00,13,14.60
2018,12,20,00,14,13.40
2018,12,20,00,15,23.70
2018,12,20,00,16,13.40
2018,12,20,00,17,16.50
2018,12,20,00,18,14.90
2018,12,20,00,19,14.10
2018,12,20,00,20,22.40
2018,12,20,00,21,20.00
2018,12,20,00,22,18.10
2018,12,20,00,23,14.40
2018,12,20,00,24,20.60
2018,12,20,00,25,20.80
2018,12,20,00,26,15.60
2018,12,20,00,27,21.60
2018,12,20,00,28,19.10
2018,12,20,00,29,12.80
2018,12,20,00,30,14.10
2018,12,20,00,31,21.50
2018,12,20,00,32,19.40
2018,12,20,00,33,27.10
2018,12,20,00,34,16.70
2018,12,20,00,35,18.20
2018,12,20,00,36,15.10
2018,12,20,00,37,13.20
2018,12,20,00,38,16.20
2018,12,20,00,39,21.90
2018,12,20,00,40,13.50
2018,12,20,00,41,8.50
2018,12,20,00,42,17.60
2018,12,20,00,43,22.90
2018,12,20,00,44,21.80
2018,12,20,00,45,18.40
2018,12,20,00,46,21.20
2018,12,20,00,47,22.10
2018,12,20,00,48,17.70
2018,12,20,00,49,12.50
2018,12,20,00,50,11.80
2018,12,20,00,51,21.00
2018,12,20,00,52,20.50
2018,12,20,00,53,13.90
2018,12,20,00,54,15.40
2018,12,20,00,55,17.60
2018,12,20,00,56,18.80
2018,12,20,00,57,21.90
2018,12,20,00,58,27.50
2018,12,20,00,59,20.00
2018,12,20,01,00,20.40
2018,12,20,01,01,21.50
2018,12,20,01,02,19.90
2018,12,20,01,03,23.10
2018,12,20,01,04,19.40
2018,12,20,01,05,20.50
2018,12,20,01,06,21.10
2018,12,20,01,07,19.80
2018,12,20,01,08,16.00
2018,12,20,01,09,23.90
2018,12,20,01,10,21.40
2018,12,20,01,11,16.60
2018,12,20,01,12,17.30
2018,12,20,01,13,17.20
2018,12,20,01,14,22.00
2018,12,20,01,15,14.10
2018,12,20,01,16,12.00
2018,12,20,01,17,14.70
2018,12,20,01,18,17.80
2018,12,20,01,19,12.00
2018,12,20,01,20,11.00
2018,12,20,01,21,17.10
2018,12,20,01,22,11.70
2018,12,20,01,23,16.50
2018,12,20,01,24,12.60
2018,12,20,01,25,21.70
2018,12,20,01,26,11.10
2018,12,20,01,27,14.60
2018,12,20,01,28,14.10
2018,12,20,01,29,19.10
2018,12,20,01,30,14.30
2018,12,20,01,31,9.50
2018,12,20,01,32,12.90
2018,12,20,01,33,15.60
2018,12,20,01,34,17.00
2018,12,20,01,35,11.80
2018,12,20,01,36,8.90
2018,12,20,01,37,16.90
2018,12,20,01,38,10.10
2018,12,20,01,39,23.70
2018,12,20,01,40,19.90
2018,12,20,01,41,12.80
2018,12,20,01,42,17.90
2018,12,20,01,43,19.40
2018,12,20,01,44,15.90
2018,12,20,01,45,19.50
2018,12,20,01,46,14.70
2018,12,20,01,47,10.50
2018,12,20,01,48,11.80
2018,12,20,01,49,17.90
2018,12,20,01,50,16.20
2018,12,20,01,51,12.60
2018,12,20,01,52,9.50
2018,12,20,01,53,14.90
2018,12,20,01,54,25.00
2018,12,20,01,55,17.10
2018,12,20,01,56,23.30
2018,12,20,01,57,12.10
2018,12,20,01,58,21.20
2018,12,20,01,59,15.30
2018,12,20,02,00,19.00
2018,12,20,02,01,17.30
2018,12,20,02,02,21.80
2018,12,20,02,03,23.90
2018,12,20,02,04,21.60
2018,12,20,02,05,13.60
2018,12,20,02,06,16.10
2018,12,20,02,07,24.60
2018,12,20,02,08,28.20
2018,12,20,02,09,14.20
2018,12,20,02,10,18.50
2018,12,20,02,11,10.10
2018,12,20,02,12,17.70
2018,12,20,02,13,16.60
2018,12,20,02,14,14.60
2018,12,20,02,15,12.90
2018,12,20,02,16,15.50
2018,12,20,02,17,13.60
2018,12,20,02,18,12.80
2018,12,20,02,19,17.90
2018,12,20,02,20,14.10
2018,12,20,02,21,25.70
2018,12,20,02,22,14.30
2018,12,20,02,23,21.80
2018,12,20,02,24,15.40
2018,12,20,02,25,21.30
2018,12,20,02,26,19.70
2018,12,20,02,27,24.30
2018,12,20,02,28,19.60
2018,12,20,02,29,23.40
2018,12,20,02,30,19.80
2018,12,20,02,31,24.10
2018,12,20,02,32,19.60
2018,12,20,02,33,25.30
2018,12,20,02,34,18.50
2018,12,20,02,35,20.60
2018,12,20,02,36,17.20
2018,12,20,02,37,25.70
2018,12,20,02,38,22.00
2018,12,20,02,39,24.90
2018,12,20,02,40,26.20
2018,12,20,02,41,28.70
2018,12,20,02,42,24.70
2018,12,20,02,43,27.60
2018,12,20,02,44,25.50
2018,12,20,02,45,23.30
2018,12,20,02,46,18.60
2018,12,20,02,47,29.40
2018,12,20,02,48,21.60
2018,12,20,02,49,26.90
2018,12,20,02,50,24.70
2018,12,20,02,51,28.50
2018,12,20,02,52,26.20
2018,12,20,02,53,26.90
2018,12,20,02,54,31.00
2018,12,20,02,55,25.30
2018,12,20,02,56,29.00
2018,12,20,02,57,30.30
2018,12,20,02,58,25.30
2018,12,20,02,59,16.10
2018,12,20,03,00,19.50
2018,12,20,03,01,26.70
2018,12,20,03,02,27.90
2018,12,20,03,03,21.10
2018,12,20,03,04,25.30
2018,12,20,03,05,17.90
2018,12,20,03,06,16.40
2018,12,20,03,07,22.50
2018,12,20,03,08,29.90
2018,12,20,03,09,19.50
2018,12,20,03,10,24.20
2018,12,20,03,11,27.90
2018,12,20,03,12,24.20
2018,12,20,03,13,15.60
2018,12,20,03,14,16.40
2018,12,20,03,15,19.60
2018,12,20,03,16,23.20
2018,12,20,03,17,23.70
2018,12,20,03,18,22.30
2018,12,20,03,19,18.10
2018,12,20,03,20,28.00
2018,12,20,03,21,23.10
2018,12,20,03,22,29.30
2018,12,20,03,23,22.40
2018,12,20,03,24,23.90
2018,12,20,03,25,24.10
2018,12,20,03,26,25.50
2018,12,20,03,27,18.30
2018,12,20,03,28,18.30
2018,12,20,03,29,24.50
2018,12,20,03,30,24.40
2018,12,20,03,31,30.40
2018,12,20,03,32,19.50
2018,12,20,03,33,28.30
2018,12,20,03,34,23.00
2018,12,20,03,35,22.50
2018,12,20,03,36,22.80
2018,12,20,03,37,21.80
2018,12,20,03,38,20.60
2018,12,20,03,39,30.60
2018,12,20,03,40,20.20
2018,12,20,03,41,19.40
2018,12,20,03,42,19.20
2018,12,20,03,43,18.30
2018,12,20,03,44,27.40
2018,12,20,03,45,29.60
2018,12,20,03,46,20.30
2018,12,20,03,47,20.30
2018,12,20,03,48,21.00
2018,12,20,03,49,17.60
2018,12,20,03,50,18.80
2018,12,20,03,51,24.90
2018,12,20,03,52,24.40
2018,12,20,03,53,22.20
2018,12,20,03,54,23.90
2018,12,20,03,55,25.20
2018,12,20,03,56,24.40
2018,12,20,03,57,23.00
2018,12,20,03,58,25.50
2018,12,20,03,59,28.90
2018,12,20,04,00,28.30
2018,12,20,04,01,20.80
2018,12,20,04,02,26.90
2018,12,20,04,03,31.80
2018,12,20,04,04,20.50
2018,12,20,04,05,31.70
2018,12,20,04,06,32.40
2018,12,20,04,07,27.10
2018,12,20,04,08,28.20
2018,12,20,04,09,28.20
2018,12,20,04,10,27.40
2018,12,20,04,11,27.00
2018,12,20,04,12,17.80
2018,12,20,04,13,26.00
2018,12,20,04,14,24.70
2018,12,20,04,15,23.30
2018,12,20,04,16,26.70
2018,12,20,04,17,24.60
2018,12,20,04,18,20.30
2018,12,20,04,19,17.30
2018,12,20,04,20,24.10
2018,12,20,04,21,27.40
2018,12,20,04,22,30.80
2018,12,20,04,23,28.40
2018,12,20,04,24,25.20
2018,12,20,04,25,17.10
2018,12,20,04,26,17.60
2018,12,20,04,27,19.60
2018,12,20,04,28,18.00
2018,12,20,04,29,22.90
2018,12,20,04,30,24.40
2018,12,20,04,31,30.30
2018,12,20,04,32,24.50
2018,12,20,04,33,24.20
2018,12,20,04,34,23.90
2018,12,20,04,35,28.90
2018,12,20,04,36,22.30
2018,12,20,04,37,21.30
2018,12,20,04,38,22.50
2018,12,20,04,39,22.00
2018,12,20,04,40,21.50
2018,12,20,04,41,17.40
2018,12,20,04,42,20.40
2018,12,20,04,43,21.80
2018,12,20,04,44,23.60
2018,12,20,04,45,21.50
2018,12,20,04,46,19.20
2018,12,20,04,47,32.20
2018,12,20,04,48,21.90
2018,12,20,04,49,19.60
2018,12,20,04,50,20.30
2018,12,20,04,51,19.20
2018,12,20,04,52,15.30
2018,12,20,04,53,22.50
2018,12,20,04,54,16.60
2018,12,20,04,55,22.70
2018,12,20,04,56,21.60
2018,12,20,04,57,14.70
2018,12,20,04,58,20.20
2018,12,20,04,59,19.10
2018,12,20,05,00,20.60
2018,12,20,05,01,16.40
2018,12,20,05,02,19.50
2018,12,20,05,03,21.60
2018,12,20,05,04,25.10
2018,12,20,05,05,15.30
2018,12,20,05,06,14.60
2018,12,20,05,07,14.70
2018,12,20,05,08,20.40
2018,12,20,05,09,18.40
2018,12,20,05,10,24.10
2018,12,20,05,11,23.60
2018,12,20,05,12,22.10
2018,12,20,05,13,18.80
2018,12,20,05,14,19.50
2018,12,20,05,15,19.10
2018,12,20,05,16,24.90
2018,12,20,05,17,20.70
2018,12,20,05,18,25.10
2018,12,20,05,19,16.90
2018,12,20,05,20,18.40
2018,12,20,05,21,24.10
2018,12,20,05,22,26.00
2018,12,20,05,23,17.20
2018,12,20,05,24,17.20
2018,12,20,05,25,15.60
2018,12,20,05,26,12.10
2018,12,20,05,27,14.60
2018,12,20,05,28,18.10
2018,12,20,05,29,17.80
2018,12,20,05,30,19.60
2018,12,20,05,31,18.30
2018,12,20,05,32,26.70
2018,12,20,05,33,16.10
2018,12,20,05,34,17.90
2018,12,20,05,35,19.10
2018,12,20,05,36,25.60
2018,12,20,05,37,22.10
2018,12,20,05,38,25.70
2018,12,20,05,39,17.60
2018,12,20,05,40,20.80
2018,12,20,05,41,15.60
2018,12,20,05,42,13.60
2018,12,20,05,43,22.00
2018,12,20,05,44,19.40
2018,12,20,05,45,21.60
2018,12,20,05,46,22.70
2018,12,20,05,47,24.10
2018,12,20,05,48,20.20
2018,12,20,05,49,19.70
2018,12,20,05,50,27.70
2018,12,20,05,51,27.80
2018,12,20,05,52,23.90
2018,12,20,05,53,24.70
2018,12,20,05,54,22.30
2018,12,20,05,55,25.70
2018,12,20,05,56,25.30
2018,12,20,05,57,26.70
2018,12,20,05,58,27.50
2018,12,20,05,59,22.10
2018,12,20,06,00,31.50
2018,12,20,06,01,33.80
2018,12,20,06,02,19.50
2018,12,20,06,03,28.70
2018,12,20,06,04,31.30
2018,12,20,06,05,25.20
2018,12,20,06,06,32.70
2018,12,20,06,07,26.60
2018,12,20,06,08,28.90
2018,12,20,06,09,33.90
2018,12,20,06,10,30.20
2018,12,20,06,11,26.20
2018,12,20,06,12,24.80
2018,12,20,06,13,22.00
2018,12,20,06,14,24.50
2018,12,20,06,15,27.10
2018,12,20,06,16,23.80
2018,12,20,06,17,29.00
2018,12,20,06,18,24.90
2018,12,20,06,19,21.30
2018,12,20,06,20,26.10
2018,12,20,06,21,27.60
2018,12,20,06,22,23.10
2018,12,20,06,23,15.70
2018,12,20,06,24,20.30
2018,12,20,06,25,27.40
2018,12,20,06,26,24.50
2018,12,20,06,27,20.30
2018,12,20,06,28,22.00
2018,12,20,06,29,20.70
2018,12,20,06,30,23.90
2018,12,20,06,31,28.00
2018,12,20,06,32,25.80
2018,12,20,06,33,29.00
2018,12,20,06,34,24.50
2018,12,20,06,35,30.70
2018,12,20,06,36,29.10
2018,12,20,06,37,22.40
2018,12,20,06,38,23.20
2018,12,20,06,39,27.10
2018,12,20,06,40,26.20
2018,12,20,06,41,26.60
2018,12,20,06,42,24.50
2018,12,20,06,43,27.90
2018,12,20,06,44,24.30
2018,12,20,06,45,22.80
2018,12,20,06,46,29.90
2018,12,20,06,47,29.00
2018,12,20,06,48,30.40
2018,12,20,06,49,21.60
2018,12,20,06,50,32.90
2018,12,20,06,51,22.10
2018,12,20,06,52,20.40
2018,12,20,06,53,30.50
2018,12,20,06,54,28.30
2018,12,20,06,55,31.40
2018,12,20,06,56,30.70
2018,12,20,06,57,27.10
2018,12,20,06,58,32.30
2018,12,20,06,59,27.60
2018,12,20,07,00,23.90
2018,12,20,07,01,26.30
2018,12,20,07,02,36.40
2018,12,20,07,03,27.90
2018,12,20,07,04,24.20
2018,12,20,07,05,24.90
2018,12,20,07,06,27.30
2018,12,20,07,07,25.70
2018,12,20,07,08,25.50
2018,12,20,07,09,30.40
2018,12,20,07,10,28.80
2018,12,20,07,11,27.00
2018,12,20,07,12,29.40
2018,12,20,07,13,31.20
2018,12,20,07,14,25.00
2018,12,20,07,15,21.80
2018,12,20,07,16,28.10
2018,12,20,07,17,29.60
2018,12,20,07,18,26.00
2018,12,20,07,19,28.10
2018,12,20,07,20,21.60
2018,12,20,07,21,31.30
2018,12,20,07,22,24.50
2018,12,20,07,23,24.50
2018,12,20,07,24,32.30
2018,12,20,07,25,27.30
2018,12,20,07,26,33.20
2018,12,20,07,27,31.20
2018,12,20,07,28,25.50
2018,12,20,07,29,24.30
2018,12,20,07,30,28.60
2018,12,20,07,31,29.20
2018,12,20,07,32,21.50
2018,12,20,07,33,25.80
2018,12,20,07,34,29.60
2018,12,20,07,35,22.00
2018,12,20,07,36,26.80
2018,12,20,07,37,29.00
2018,12,20,07,38,29.20
2018,12,20,07,39,24.30
2018,12,20,07,40,19.80
2018,12,20,07,41,17.50
2018,12,20,07,42,29.00
2018,12,20,07,43,25.00
2018,12,20,07,44,24.90
2018,12,20,07,45,23.70
2018,12,20,07,46,27.10
2018,12,20,07,47,28.10
2018,12,20,07,48,19.30
2018,12,20,07,49,21.90
2018,12,20,07,50,21.30
2018,12,20,07,51,19.90
2018,12,20,07,52,22.30
2018,12,20,07,53,23.10
2018,12,20,07,54,23.20
2018,12,20,07,55,24.70
2018,12,20,07,56,20.00
2018,12,20,07,57,25.60
2018,12,20,07,58,24.10
2018,12,20,07,59,29.40
2018,12,20,08,00,26.60
2018,12,20,08,01,17.10
2018,12,20,08,02,22.90
2018,12,20,08,03,24.90
2018,12,20,08,04,19.70
2018,12,20,08,05,18.50
2018,12,20,08,06,21.70
2018,12,20,08,07,26.70
2018,12,20,08,08,24.70
2018,12,20,08,09,22.10
2018,12,20,08,10,21.00
2018,12,20,08,11,19.70
2018,12,20,08,12,22.60
2018,12,20,08,13,21.20
2018,12,20,08,14,23.20
2018,12,20,08,15,16.70
2018,12,20,08,16,25.20
2018,12,20,08,17,18.40
2018,12,20,08,18,26.00
2018,12,20,08,19,20.10
2018,12,20,08,20,28.90
2018,12,20,08,21,17.90
2018,12,20,08,22,18.40
2018,12,20,08,23,22.00
2018,12,20,08,24,22.70
2018,12,20,08,25,21.20
2018,12,20,08,26,21.50
2018,12,20,08,27,23.00
2018,12,20,08,28,24.00
2018,12,20,08,29,19.90
2018,12,20,08,30,22.00
2018,12,20,08,31,21.80
2018,12,20,08,32,18.20
2018,12,20,08,33,18.90
2018,12,20,08,34,21.60
2018,12,20,08,35,21.10
2018,12,20,08,36,15.30
2018,12,20,08,37,17.90
2018,12,20,08,38,18.10
2018,12,20,08,39,28.80
2018,12,20,08,40,18.60
2018,12,20,08,41,18.50
2018,12,20,08,42,26.50
2018,12,20,08,43,21.30
2018,12,20,08,44,19.10
2018,12,20,08,45,18.30
2018,12,20,08,46,21.80
2018,12,20,08,47,25.00
2018,12,20,08,48,26.30
2018,12,20,08,49,23.20
2018,12,20,08,50,18.40
2018,12,20,08,51,22.70
2018,12,20,08,52,19.60
2018,12,20,08,53,15.70
2018,12,20,08,54,16.90
2018,12,20,08,55,22.70
2018,12,20,08,56,19.80
2018,12,20,08,57,22.30
2018,12,20,08,58,18.50
2018,12,20,08,59,21.70
2018,12,20,09,00,20.20
2018,12,20,09,01,25.80
2018,12,20,09,02,19.80
2018,12,20,09,03,18.80
2018,12,20,09,04,11.50
2018,12,20,09,05,16.70
2018,12,20,09,06,23.70
2018,12,20,09,07,25.20
2018,12,20,09,08,23.70
2018,12,20,09,09,24.60
2018,12,20,09,10,25.10
2018,12,20,09,11,22.90
2018,12,20,09,12,23.20
2018,12,20,09,13,30.00
2018,12,20,09,14,27.50
2018,12,20,09,15,23.90
2018,12,20,09,16,30.40
2018,12,20,09,17,18.00
2018,12,20,09,18,24.60
2018,12,20,09,19,22.00
2018,12,20,09,20,20.60
2018,12,20,09,21,21.10
2018,12,20,09,22,22.90
2018,12,20,09,23,23.70
2018,12,20,09,24,28.50
2018,12,20,09,25,27.80
2018,12,20,09,26,25.50
2018,12,20,09,27,28.30
2018,12,20,09,28,24.00
2018,12,20,09,29,31.50
2018,12,20,09,30,28.40
2018,12,20,09,31,30.20
2018,12,20,09,32,24.40
2018,12,20,09,33,30.00
2018,12,20,09,34,23.00
2018,12,20,09,35,27.40
2018,12,20,09,36,20.50
2018,12,20,09,37,26.20
2018,12,20,09,38,23.60
2018,12,20,09,39,21.40
2018,12,20,09,40,22.30
2018,12,20,09,41,24.70
2018,12,20,09,42,25.10
2018,12,20,09,43,17.50
2018,12,20,09,44,16.70
2018,12,20,09,45,23.10
2018,12,20,09,46,20.90
2018,12,20,09,47,20.10
2018,12,20,09,48,21.10
2018,12,20,09,49,16.60
2018,12,20,09,50,20.70
2018,12,20,09,51,23.30
2018,12,20,09,52,15.90
2018,12,20,09,53,22.70
2018,12,20,09,54,16.30
2018,12,20,09,55,28.50
2018,12,20,09,56,22.40
2018,12,20,09,57,20.70
2018,12,20,09,58,25.10
2018,12,20,09,59,26.10
2018,12,20,10,00,27.00
2018,12,20,10,01,19.20
2018,12,20,10,02,22.50
2018,12,20,10,03,26.60
2018,12,20,10,04,19.50
2018,12,20,10,05,28.00
2018,12,20,10,06,22.20
2018,12,20,10,07,26.60
2018,12,20,10,08,29.10
2018,12,20,10,09,29.90
2018,12,20,10,10,25.10
2018,12,20,10,11,25.30
2018,12,20,10,12,26.00
2018,12,20,10,13,21.80
2018,12,20,10,14,27.40
2018,12,20,10,15,26.80
2018,12,20,10,16,25.70
2018,12,20,10,17,29.30
2018,12,20,10,18,19.30
2018,12,20,10,19,27.80
2018,12,20,10,20,29.30
2018,12,20,10,21,21.60
2018,12,20,10,22,25.80
2018,12,20,10,23,21.70
2018,12,20,10,24,23.20
2018,12,20,10,25,25.00
2018,12,20,10,26,23.00
2018,12,20,10,27,20.90
2018,12,20,10,28,17.60
2018,12,20,10,29,19.80
2018,12,20,10,30,28.30
2018,12,20,10,31,24.10
2018,12,20,10,32,26.00
2018,12,20,10,33,17.20
2018,12,20,10,34,15.70
2018,12,20,10,35,15.50
2018,12,20,10,36,11.80
2018,12,20,10,37,15.60
2018,12,20,10,38,15.80
2018,12,20,10,39,13.70
2018,12,20,10,40,15.30
2018,12,20,10,41,12.20
2018,12,20,10,42,13.80
2018,12,20,10,43,11.90
2018,12,20,10,44,10.30
2018,12,20,10,45,7.20
2018,12,20,10,46,10.90
2018,12,20,10,47,6.80
2018,12,20,10,48,2.10
2018,12,20,10,49,3.70
2018,12,20,10,50,5.10
2018,12,20,10,51,9.60
2018,12,20,10,52,11.00
2018,12,20,10,53,10.00
2018,12,20,10,54,3.90
2018,12,20,10,55,5.60
2018,12,20,10,56,6.40
2018,12,20,10,57,11.70
2018,12,20,10,58,7.40
2018,12,20,10,59,9.30
2018,12,20,11,00,7.50
2018,12,20,11,01,5.40
2018,12,20,11,02,8.30
2018,12,20,11,03,12.70
2018,12,20,11,04,15.00
2018,12,20,11,05,13.80
2018,12,20,11,06,18.70
2018,12,20,11,07,10.30
2018,12,20,11,08,20.60
2018,12,20,11,09,20.50
2018,12,20,11,10,14.00
2018,12,20,11,11,16.40
2018,12,20,11,12,14.00
2018,12,20,11,13,14.90
2018,12,20,11,14,24.30
2018,12,20,11,15,20.30
2018,12,20,11,16,22.60
2018,12,20,11,17,24.10
2018,12,20,11,18,32.30
2018,12,20,11,19,28.20
2018,12,20,11,20,18.80
2018,12,20,11,21,15.10
2018,12,20,11,22,19.80
2018,12,20,11,23,24.70
2018,12,20,11,24,20.20
2018,12,20,11,25,18.60
2018,12,20,11,26,22.80
2018,12,20,11,27,17.80
2018,12,20,11,28,32.20
2018,12,20,11,29,31.60
2018,12,20,11,30,32.80
2018,12,20,11,31,25.30
2018,12,20,11,32,18.20
2018,12,20,11,33,32.80
2018,12,20,11,34,25.40
2018,12,20,11,35,24.20
2018,12,20,11,36,23.80
2018,12,20,11,37,29.50
2018,12,20,11,38,22.00
2018,12,20,11,39,29.90
2018,12,20,11,40,30.70
2018,12,20,11,41,35.80
2018,12,20,11,42,27.00
2018,12,20,11,43,31.40
2018,12,20,11,44,22.40
2018,12,20,11,45,28.80
2018,12,20,11,46,25.60
2018,12,20,11,47,29.50
2018,12,20,11,48,33.50
2018,12,20,11,49,32.90
2018,12,20,11,50,40.20
2018,12,20,11,51,29.70
2018,12,20,11,52,40.10
2018,12,20,11,53,32.80
2018,12,20,11,54,31.80
2018,12,20,11,55,41.00
2018,12,20,11,56,36.20
2018,12,20,11,57,37.20
2018,12,20,11,58,34.90
2018,12,20,11,59,36.50
2018,12,20,12,00,36.40
2018,12,20,12,01,40.80
2018,12,20,12,02,27.90
2018,12,20,12,03,31.30
2018,12,20,12,04,29.10
2018,12,20,12,05,25.20
2018,12,20,12,06,44.30
2018,12,20,12,07,20.10
2018,12,20,12,08,42.80
2018,12,20,12,09,24.50
2018,12,20,12,10,36.40
2018,12,20,12,11,37.70
2018,12,20,12,12,44.70
2018,12,20,12,13,45.50
2018,12,20,12,14,28.90
2018,12,20,12,15,29.20
2018,12,20,12,16,32.40
2018,12,20,12,17,32.20
2018,12,20,12,18,36.90
2018,12,20,12,19,35.10
2018,12,20,12,20,16.50
2018,12,20,12,21,30.50
2018,12,20,12,22,27.80
2018,12,20,12,23,32.60
2018,12,20,12,24,27.70
2018,12,20,12,25,22.20
2018,12,20,12,26,14.10
2018,12,20,12,27,28.40
2018,12,20,12,28,15.90
2018,12,20,12,29,18.40
2018,12,20,12,30,17.50
2018,12,20,12,31,22.60
2018,12,20,12,32,34.10
2018,12,20,12,33,31.10
2018,12,20,12,34,29.80
2018,12,20,12,35,26.20
2018,12,20,12,36,31.10
2018,12,20,12,37,29.50
2018,12,20,12,38,25.30
2018,12,20,12,39,20.20
2018,12,20,12,40,35.60
2018,12,20,12,41,29.00
2018,12,20,12,42,16.50
2018,12,20,12,43,29.00
2018,12,20,12,44,33.00
2018,12,20,12,45,28.60
2018,12,20,12,46,31.00
2018,12,20,12,47,29.30
2018,12,20,12,48,32.20
2018,12,20,12,49,26.30
2018,12,20,12,50,31.60
2018,12,20,12,51,35.20
2018,12,20,12,52,28.20
2018,12,20,12,53,28.70
2018,12,20,12,54,24.30
2018,12,20,12,55,20.90
2018,12,20,12,56,24.70
2018,12,20,12,57,24.90
2018,12,20,12,58,34.20
2018,12,20,12,59,37.60
2018,12,20,13,00,25.80
2018,12,20,13,01,31.10
2018,12,20,13,02,38.90
2018,12,20,13,03,29.30
2018,12,20,13,04,25.70
2018,12,20,13,05,31.10
2018,12,20,13,06,38.80
2018,12,20,13,07,30.50
2018,12,20,13,08,27.30
2018,12,20,13,09,27.30
2018,12,20,13,10,32.00
2018,12,20,13,11,32.80
2018,12,20,13,12,30.20
2018,12,20,13,13,30.70
2018,12,20,13,14,31.20
2018,12,20,13,15,39.10
2018,12,20,13,16,34.10
2018,12,20,13,17,27.50
2018,12,20,13,18,23.10
2018,12,20,13,19,22.80
2018,12,20,13,20,22.10
2018,12,20,13,21,24.30
2018,12,20,13,22,27.80
2018,12,20,13,23,30.60
2018,12,20,13,24,28.00
2018,12,20,13,25,30.60
2018,12,20,13,26,24.40
2018,12,20,13,27,33.40
2018,12,20,13,28,31.40
2018,12,20,13,29,28.30
2018,12,20,13,30,27.00
2018,12,20,13,31,42.50
2018,12,20,13,32,39.50
2018,12,20,13,33,34.60
2018,12,20,13,34,30.60
2018,12,20,13,35,21.00
2018,12,20,13,36,37.30
2018,12,20,13,37,35.40
2018,12,20,13,38,42.20
2018,12,20,13,39,33.60
2018,12,20,13,40,37.80
2018,12,20,13,41,32.70
2018,12,20,13,42,46.30
2018,12,20,13,43,35.60
2018,12,20,13,44,28.10
2018,12,20,13,45,29.90
2018,12,20,13,46,28.20
2018,12,20,13,47,41.20
2018,12,20,13,48,37.00
2018,12,20,13,49,39.60
2018,12,20,13,50,28.00
2018,12,20,13,51,32.30
2018,12,20,13,52,25.00
2018,12,20,13,53,32.90
2018,12,20,13,54,25.70
2018,12,20,13,55,22.30
2018,12,20,13,56,38.80
2018,12,20,13,57,24.90
2018,12,20,13,58,26.80
2018,12,20,13,59,30.60
2018,12,20,14,00,47.80
2018,12,20,14,01,36.40
2018,12,20,14,02,37.20
2018,12,20,14,03,31.90
2018,12,20,14,04,34.40
2018,12,20,14,05,38.10
2018,12,20,14,06,37.20
2018,12,20,14,07,49.00
2018,12,20,14,08,34.80
2018,12,20,14,09,24.10
2018,12,20,14,10,37.80
2018,12,20,14,11,35.90
2018,12,20,14,12,29.30
2018,12,20,14,13,28.80
2018,12,20,14,14,38.70
2018,12,20,14,15,35.20
2018,12,20,14,16,42.30
2018,12,20,14,17,42.10
2018,12,20,14,18,42.80
2018,12,20,14,19,27.90
2018,12,20,14,20,30.80
2018,12,20,14,21,41.90
2018,12,20,14,22,30.80
2018,12,20,14,23,36.90
2018,12,20,14,24,35.00
2018,12,20,14,25,42.00
2018,12,20,14,26,39.10
2018,12,20,14,27,27.90
2018,12,20,14,28,42.60
2018,12,20,14,29,26.10
2018,12,20,14,30,41.00
2018,12,20,14,31,29.30
2018,12,20,14,32,25.20
2018,12,20,14,33,28.10
2018,12,20,14,34,33.20
2018,12,20,14,35,31.50
2018,12,20,14,36,35.50
2018,12,20,14,37,41.00
2018,12,20,14,38,41.00
2018,12,20,14,39,41.80
2018,12,20,14,40,39.30
2018,12,20,14,41,32.40
2018,12,20,14,42,30.70
2018,12,20,14,43,28.20
2018,12,20,14,44,38.90
2018,12,20,14,45,27.90
2018,12,20,14,46,26.60
2018,12,20,14,47,35.00
2018,12,20,14,48,36.30
2018,12,20,14,49,37.50
2018,12,20,14,50,26.70
2018,12,20,14,51,31.20
2018,12,20,14,52,27.70
2018,12,20,14,53,33.20
2018,12,20,14,54,34.00
2018,12,20,14,55,36.80
2018,12,20,14,56,40.90
2018,12,20,14,57,31.70
2018,12,20,14,58,37.80
2018,12,20,14,59,29.90
2018,12,20,15,00,32.70
2018,12,20,15,01,35.00
2018,12,20,15,02,33.50
2018,12,20,15,03,28.60
2018,12,20,15,04,36.90
2018,12,20,15,05,33.60
2018,12,20,15,06,36.40
2018,12,20,15,07,24.30
2018,12,20,15,08,28.40
2018,12,20,15,09,42.20
2018,12,20,15,10,36.00
2018,12,20,15,11,31.80
2018,12,20,15,12,23.20
2018,12,20,15,13,27.60
2018,12,20,15,14,23.70
2018,12,20,15,15,26.90
2018,12,20,15,16,23.10
2018,12,20,15,17,26.90
2018,12,20,15,18,25.70
2018,12,20,15,19,31.00
2018,12,20,15,20,21.90
2018,12,20,15,21,26.00
2018,12,20,15,22,32.20
2018,12,20,15,23,28.40
2018,12,20,15,24,33.70
2018,12,20,15,25,30.60
2018,12,20,15,26,28.40
2018,12,20,15,27,33.40
2018,12,20,15,28,29.60
2018,12,20,15,29,27.80
2018,12,20,15,30,32.00
2018,12,20,15,31,23.50
2018,12,20,15,32,39.00
2018,12,20,15,33,34.70
2018,12,20,15,34,30.00
2018,12,20,15,35,23.60
2018,12,20,15,36,24.10
2018,12,20,15,37,25.30
2018,12,20,15,38,31.70
2018,12,20,15,39,36.60
2018,12,20,15,40,33.70
2018,12,20,15,41,36.70
2018,12,20,15,42,33.40
2018,12,20,15,43,26.80
2018,12,20,15,44,36.60
2018,12,20,15,45,30.40
2018,12,20,15,46,32.80
2018,12,20,15,47,29.30
2018,12,20,15,48,32.90
2018,12,20,15,49,29.00
2018,12,20,15,50,34.70
2018,12,20,15,51,34.10
2018,12,20,15,52,23.40
2018,12,20,15,53,27.40
2018,12,20,15,54,39.30
2018,12,20,15,55,30.30
2018,12,20,15,56,27.50
2018,12,20,15,57,35.40
2018,12,20,15,58,31.30
2018,12,20,15,59,33.10
2018,12,20,16,00,29.00
2018,12,20,16,01,31.40
2018,12,20,16,02,30.10
2018,12,20,16,03,34.70
2018,12,20,16,04,39.40
2018,12,20,16,05,32.00
2018,12,20,16,06,34.80
2018,12,20,16,07,37.50
2018,12,20,16,08,35.40
2018,12,20,16,09,34.90
2018,12,20,16,10,39.20
2018,12,20,16,11,46.10
2018,12,20,16,12,33.30
2018,12,20,16,13,41.00
2018,12,20,16,14,36.40
2018,12,20,16,15,38.70
2018,12,20,16,16,33.30
2018,12,20,16,17,30.40
2018,12,20,16,18,36.90
2018,12,20,16,19,51.50
2018,12,20,16,20,49.40
2018,12,20,16,21,33.70
2018,12,20,16,22,30.60
2018,12,20,16,23,33.30
2018,12,20,16,24,34.70
2018,12,20,16,25,34.20
2018,12,20,16,26,25.00
2018,12,20,16,27,32.30
2018,12,20,16,28,41.40
2018,12,20,16,29,44.20
2018,12,20,16,30,35.90
2018,12,20,16,31,32.30
2018,12,20,16,32,34.60
2018,12,20,16,33,31.00
2018,12,20,16,34,27.30
2018,12,20,16,35,30.00
2018,12,20,16,36,34.90
2018,12,20,16,37,37.30
2018,12,20,16,38,22.60
2018,12,20,16,39,17.50
2018,12,20,16,40,27.00
2018,12,20,16,41,15.30
2018,12,20,16,42,28.20
2018,12,20,16,43,25.10
2018,12,20,16,44,28.30
2018,12,20,16,45,19.20
2018,12,20,16,46,19.10
2018,12,20,16,47,24.90
2018,12,20,16,48,23.20
2018,12,20,16,49,15.90
2018,12,20,16,50,27.00
2018,12,20,16,51,25.10
2018,12,20,16,52,18.20
2018,12,20,16,53,23.90
2018,12,20,16,54,25.30
2018,12,20,16,55,21.50
2018,12,20,16,56,21.20
2018,12,20,16,57,28.60
2018,12,20,16,58,18.50
2018,12,20,16,59,16.80
2018,12,20,17,00,19.50
2018,12,20,17,01,14.20
2018,12,20,17,02,22.50
2018,12,20,17,03,22.90
2018,12,20,17,04,16.60
2018,12,20,17,05,18.80
2018,12,20,17,06,14.60
2018,12,20,17,07,9.20
2018,12,20,17,08,17.60
2018,12,20,17,09,22.30
2018,12,20,17,10,23.40
2018,12,20,17,11,20.00
2018,12,20,17,12,19.10
2018,12,20,17,13,14.20
2018,12,20,17,14,14.20
2018,12,20,17,15,11.50
2018,12,20,17,16,22.30
2018,12,20,17,17,20.20
2018,12,20,17,18,28.20
2018,12,20,17,19,23.20
2018,12,20,17,20,20.50